When you browse on this site, cookies collect data to enhance your experience and personalize the content and advertising you see.
Visit our Privacy Policy to learn more. By continuing to use the site, you agree to this use of cookies and data.
  • In Spain
  • List of Countries
  • For 7 days
  • Water Temperature
  • Weather Map
  • Weather Widgets
  • user-avatar
    Login

    Hourly Weather Borisovschina

    Today, 2 June, Tuesday

    Time Temperature Precipitation Wind Pressure Humidity
    00:00 +8°C° 0.5 mm 6 mps 743 mmHg 93%
    01:00 +6°C° 0.5 mm 7 mps 743 mmHg 93%
    02:00 +6°C° 0 mm 7 mps 743 mmHg 90%
    03:00 +6°C° 0.1 mm 7 mps 743 mmHg 90%
    04:00 +7°C° 0.1 mm 6 mps 742 mmHg 90%
    05:00 +7°C° 0.1 mm 6 mps 742 mmHg 90%
    06:00 +6°C° 1 mm 7 mps 742 mmHg 91%
    07:00 +6°C° 1 mm 7 mps 742 mmHg 92%
    08:00 +6°C° 0 mm 7 mps 742 mmHg 95%
    09:00 +6°C° 0.2 mm 7 mps 742 mmHg 94%
    10:00 +6°C° 0.2 mm 7 mps 742 mmHg 93%
    11:00 +8°C° 0.2 mm 7 mps 742 mmHg 92%
    12:00 +8°C° 0 mm 7 mps 742 mmHg 91%
    13:00 +8°C° 0 mm 7 mps 742 mmHg 90%
    14:00 +9°C° 0 mm 6 mps 743 mmHg 89%
    15:00 +9°C° 0 mm 6 mps 743 mmHg 86%
    16:00 +10°C° 0 mm 6 mps 742 mmHg 83%
    17:00 +10°C° 0 mm 7 mps 742 mmHg 80%
    18:00 +10°C° 0.5 mm 6 mps 742 mmHg 83%
    19:00 +9°C° 0.5 mm 6 mps 742 mmHg 87%
    20:00 +8°C° 0.5 mm 5 mps 742 mmHg 90%
    21:00 +8°C° 0.3 mm 5 mps 742 mmHg 91%
    22:00 +8°C° 0.3 mm 4 mps 742 mmHg 92%
    23:00 +8°C° 0.3 mm 4 mps 742 mmHg 93%

    Tomorrow, 3 June, Wednesday

    Time Temperature Precipitation Wind Pressure Humidity
    00:00 +8°C° 0.1 mm 4 mps 742 mmHg 94%
    01:00 +9°C° 0.1 mm 3 mps 742 mmHg 96%
    02:00 +9°C° 0.1 mm 3 mps 742 mmHg 97%
    03:00 +9°C° 0 mm 2 mps 741 mmHg 97%
    04:00 +9°C° 0 mm 2 mps 741 mmHg 97%
    05:00 +10°C° 0 mm 2 mps 741 mmHg 97%
    06:00 +10°C° 0 mm 2 mps 741 mmHg 94%
    07:00 +12°C° 0 mm 2 mps 741 mmHg 92%
    08:00 +13°C° 0 mm 2 mps 741 mmHg 89%
    09:00 +14°C° 0 mm 2 mps 741 mmHg 83%
    10:00 +15°C° 0 mm 2 mps 741 mmHg 78%
    11:00 +16°C° 0 mm 2 mps 741 mmHg 72%
    12:00 +17°C° 0.1 mm 2 mps 741 mmHg 69%
    13:00 +19°C° 0.1 mm 1 mps 741 mmHg 66%
    14:00 +19°C° 0.1 mm 1 mps 741 mmHg 62%
    15:00 +19°C° 0.1 mm 1 mps 740 mmHg 64%
    16:00 +18°C° 0.1 mm 2 mps 740 mmHg 66%
    17:00 +18°C° 0.1 mm 2 mps 740 mmHg 68%
    18:00 +16°C° 0.1 mm 1 mps 740 mmHg 75%
    19:00 +14°C° 0.1 mm 1 mps 740 mmHg 82%
    20:00 +13°C° 0.1 mm 1 mps 740 mmHg 88%
    21:00 +12°C° 0 mm 1 mps 739 mmHg 90%
    22:00 +11°C° 0 mm 1 mps 739 mmHg 91%
    23:00 +10°C° 0 mm 1 mps 739 mmHg 93%

    Day after tomorrow, 4 June, Thursday

    Time Temperature Precipitation Wind Pressure Humidity
    00:00 +10°C° 0 mm 1 mps 739 mmHg 93%
    01:00 +10°C° 0 mm 1 mps 739 mmHg 93%
    02:00 +9°C° 0 mm 1 mps 739 mmHg 94%
    03:00 +10°C° 0 mm 1 mps 739 mmHg 93%
    04:00 +10°C° 0 mm 1 mps 739 mmHg 93%
    05:00 +10°C° 0 mm 1 mps 738 mmHg 92%
    06:00 +12°C° 0 mm 2 mps 738 mmHg 86%
    07:00 +14°C° 0 mm 2 mps 738 mmHg 81%
    08:00 +15°C° 0 mm 2 mps 738 mmHg 75%
    09:00 +16°C° 0.2 mm 3 mps 738 mmHg 74%
    10:00 +17°C° 0.2 mm 3 mps 738 mmHg 72%
    11:00 +17°C° 0.2 mm 4 mps 738 mmHg 70%
    12:00 +15°C° 0.7 mm 4 mps 738 mmHg 76%
    13:00 +14°C° 0.7 mm 4 mps 738 mmHg 83%
    14:00 +13°C° 0.7 mm 4 mps 738 mmHg 89%
    15:00 +14°C° 0.2 mm 4 mps 738 mmHg 86%
    16:00 +14°C° 0.2 mm 4 mps 738 mmHg 84%
    17:00 +16°C° 0.2 mm 3 mps 738 mmHg 81%
    18:00 +14°C° 0.3 mm 3 mps 738 mmHg 85%
    19:00 +13°C° 0.3 mm 3 mps 738 mmHg 89%
    20:00 +13°C° 0.3 mm 2 mps 738 mmHg 93%
    21:00 +12°C° 0 mm 2 mps 738 mmHg 94%
    22:00 +10°C° 0 mm 2 mps 738 mmHg 95%
    23:00 +10°C° 0 mm 2 mps 738 mmHg 95%

    5 June, Friday

    Time Temperature Precipitation Wind Pressure Humidity
    00:00 +9°C° 0 mm 3 mps 738 mmHg 96%
    01:00 +9°C° 0 mm 3 mps 738 mmHg 96%
    02:00 +9°C° 0 mm 3 mps 738 mmHg 96%
    03:00 +9°C° 0.2 mm 3 mps 738 mmHg 96%
    04:00 +9°C° 0.2 mm 3 mps 738 mmHg 97%
    05:00 +9°C° 0.2 mm 3 mps 738 mmHg 97%
    06:00 +11°C° 0.1 mm 3 mps 738 mmHg 93%
    07:00 +12°C° 0.1 mm 3 mps 738 mmHg 90%
    08:00 +14°C° 0.1 mm 3 mps 738 mmHg 86%
    09:00 +15°C° 0.4 mm 4 mps 738 mmHg 81%
    10:00 +17°C° 0.4 mm 4 mps 738 mmHg 75%
    11:00 +19°C° 0.4 mm 4 mps 738 mmHg 69%
    12:00 +19°C° 0.2 mm 4 mps 738 mmHg 68%
    13:00 +19°C° 0.2 mm 4 mps 738 mmHg 67%
    14:00 +20°C° 0.2 mm 4 mps 738 mmHg 67%
    15:00 +20°C° 0.1 mm 4 mps 738 mmHg 69%
    16:00 +20°C° 0.1 mm 4 mps 738 mmHg 71%
    17:00 +20°C° 0.1 mm 4 mps 738 mmHg 73%
    18:00 +18°C° 0.2 mm 4 mps 739 mmHg 80%
    19:00 +17°C° 0.2 mm 3 mps 739 mmHg 86%
    20:00 +16°C° 0.2 mm 3 mps 739 mmHg 93%
    21:00 +14°C° 0 mm 3 mps 739 mmHg 95%
    22:00 +14°C° 0 mm 3 mps 739 mmHg 96%
    23:00 +13°C° 0 mm 3 mps 739 mmHg 98%

    6 June, Saturday

    Time Temperature Precipitation Wind Pressure Humidity
    00:00 +14°C° 0.2 mm 4 mps 739 mmHg 98%
    01:00 +14°C° 0.2 mm 4 mps 739 mmHg 98%
    02:00 +14°C° 0.2 mm 4 mps 738 mmHg 97%
    03:00 +15°C° 0.2 mm 4 mps 738 mmHg 97%
    04:00 +15°C° 0.2 mm 4 mps 738 mmHg 97%
    05:00 +15°C° 0.2 mm 4 mps 738 mmHg 97%
    06:00 +17°C° 0 mm 4 mps 738 mmHg 93%
    07:00 +19°C° 0 mm 4 mps 739 mmHg 89%
    08:00 +20°C° 0 mm 5 mps 739 mmHg 85%
    09:00 +20°C° 0.6 mm 5 mps 739 mmHg 87%
    10:00 +19°C° 0.6 mm 6 mps 739 mmHg 90%
    11:00 +19°C° 0.6 mm 6 mps 740 mmHg 92%
    12:00 +19°C° 0.6 mm 6 mps 740 mmHg 90%
    13:00 +20°C° 0.6 mm 6 mps 741 mmHg 88%
    14:00 +20°C° 0.6 mm 6 mps 741 mmHg 87%
    15:00 +20°C° 0.2 mm 5 mps 742 mmHg 81%
    16:00 +21°C° 0.2 mm 4 mps 742 mmHg 75%
    17:00 +21°C° 0.2 mm 4 mps 742 mmHg 69%
    18:00 +20°C° 0 mm 3 mps 743 mmHg 74%
    19:00 +18°C° 0 mm 2 mps 743 mmHg 79%
    20:00 +17°C° 0 mm 2 mps 744 mmHg 84%
    21:00 +16°C° 0 mm 2 mps 745 mmHg 87%
    22:00 +15°C° 0 mm 2 mps 745 mmHg 90%
    23:00 +14°C° 0 mm 2 mps 746 mmHg 93%

    7 June, Sunday

    Time Temperature Precipitation Wind Pressure Humidity
    00:00 +14°C° 0 mm 1 mps 746 mmHg 93%
    01:00 +13°C° 0 mm 1 mps 747 mmHg 93%
    02:00 +13°C° 0 mm 1 mps 747 mmHg 94%
    03:00 +13°C° 0 mm 1 mps 747 mmHg 92%
    04:00 +13°C° 0 mm 0 mps 748 mmHg 91%
    05:00 +13°C° 0 mm 0 mps 748 mmHg 90%
    06:00 +16°C° 0 mm 1 mps 748 mmHg 84%
    07:00 +19°C° 0 mm 1 mps 748 mmHg 78%
    08:00 +19°C° 0 mm 2 mps 749 mmHg 72%
    09:00 +21°C° 0 mm 2 mps 749 mmHg 69%
    10:00 +23°C° 0 mm 2 mps 749 mmHg 66%
    11:00 +24°C° 0 mm 2 mps 749 mmHg 63%
    12:00 +24°C° 0 mm 3 mps 749 mmHg 62%
    13:00 +25°C° 0 mm 3 mps 748 mmHg 62%
    14:00 +25°C° 0 mm 3 mps 748 mmHg 62%
    15:00 +25°C° 0 mm 3 mps 748 mmHg 65%
    16:00 +25°C° 0 mm 3 mps 747 mmHg 68%
    17:00 +25°C° 0 mm 3 mps 747 mmHg 71%
    18:00 +22°C° 0.8 mm 3 mps 747 mmHg 78%
    19:00 +21°C° 0.8 mm 3 mps 747 mmHg 84%
    20:00 +19°C° 0.8 mm 3 mps 747 mmHg 91%
    21:00 +19°C° 1.2 mm 3 mps 747 mmHg 92%
    22:00 +19°C° 1.2 mm 3 mps 747 mmHg 93%
    23:00 +19°C° 1.2 mm 3 mps 747 mmHg 94%
    Show more